GFSNW_sfc_dewp_300.txt.gz
Dewpoint
52 51 49 47 47 46 45 35 31 45 44 34 31 26 25 32 24 29 19 23 21 19 18 20 21 21 22 23 28 22 23 20 13 11 18 20 20 19 21 12 6 21 18 10
51 50 48 46 45 47 37 40 42 45 39 30 30 33 31 29 20 20 20 23 24 24 21 20 22 21 27 24 24 24 21 18 12 10 16 21 18 27 18 15 21 18 11 7
51 49 47 45 45 47 41 40 33 38 40 36 30 31 27 24 24 22 22 23 24 25 23 24 20 20 25 26 30 36 29 21 16 12 15 19 10 24 19 14 14 15 16 9
50 48 46 45 44 48 39 37 33 36 32 34 34 29 26 22 20 23 22 24 22 23 21 20 20 23 21 20 31 26 23 20 20 23 27 14 14 22 22 13 17 12 3 16
50 48 45 44 45 48 39 33 33 34 32 35 33 32 28 21 21 22 21 23 25 24 23 22 20 21 20 19 20 24 24 21 20 18 23 24 20 16 23 21 17 13 12 12
50 47 44 43 46 47 42 41 39 35 34 33 32 31 29 24 24 29 26 27 25 23 26 26 25 24 24 23 23 23 20 22 18 13 18 14 11 18 20 21 20 18 15 16
49 47 43 43 47 44 41 41 39 36 30 32 31 31 28 26 26 25 28 27 26 29 28 27 26 26 28 28 27 25 21 20 20 16 16 -2 11 17 20 20 22 20 18 22
48 46 43 45 46 47 45 45 40 38 32 31 30 31 29 30 31 29 28 33 30 29 27 27 23 24 23 23 29 26 23 23 16 11 14 11 14 21 21 19 18 24 21 23
45 44 45 46 47 48 47 46 44 41 36 33 31 30 30 27 28 30 33 34 32 29 29 26 17 18 21 21 25 28 25 23 18 17 5 1 12 18 20 18 11 24 23 23
46 45 45 47 48 48 47 45 44 39 34 35 34 31 29 30 31 30 31 30 29 29 27 22 19 19 22 20 21 23 24 21 14 13 12 16 19 23 17 10 16 25 25 25
44 44 45 47 48 48 46 42 43 38 35 34 36 37 32 32 33 31 31 30 30 28 23 23 23 23 23 22 24 24 23 19 14 16 9 12 26 22 15 21 27 28 27 27
45 45 46 47 47 46 44 38 41 40 37 35 37 36 36 36 34 34 31 31 28 29 27 25 27 24 24 23 21 25 23 24 23 21 21 27 28 26 28 27 27 27 28 29
45 46 47 47 47 46 43 40 40 39 37 36 35 34 36 39 39 36 33 33 33 32 33 30 27 23 26 22 23 23 24 28 25 24 26 27 27 27 27 26 27 27 28 27
46 47 46 45 47 47 45 40 41 39 37 33 33 37 37 40 41 38 36 37 39 38 35 29 28 29 29 25 25 23 25 28 27 25 27 26 26 26 26 26 27 26 26 26
46 47 46 45 47 46 42 41 41 39 37 32 32 35 36 37 40 38 38 36 33 32 31 30 28 28 27 26 24 23 26 27 26 24 27 26 26 26 27 25 25 25 23 22
45 45 45 46 46 44 38 35 37 39 38 34 30 34 34 35 36 35 35 37 36 34 32 28 30 31 28 26 22 27 29 30 28 26 28 28 28 28 24 23 22 22 21 22
44 45 46 45 45 40 37 35 37 40 39 34 31 31 34 35 35 34 34 34 33 33 29 27 28 28 28 26 22 27 28 28 28 28 27 26 26 21 23 23 22 22 21 21
45 45 45 44 44 42 37 37 43 40 36 35 29 30 31 33 31 31 34 31 31 30 28 29 27 28 27 24 27 27 27 27 27 27 26 25 22 21 20 21 21 22 21 21
45 44 44 41 37 35 32 40 40 39 35 29 29 29 27 33 31 31 32 30 26 28 26 27 28 25 22 25 26 26 26 26 23 23 23 23 24 25 24 23 23 23 24 24
43 39 37 34 34 40 40 35 33 33 33 32 29 31 29 31 30 30 30 29 26 22 25 28 26 24 27 29 27 28 26 23 23 22 22 24 23 22 22 22 23 22 21 21
37 35 33 36 38 35 33 29 28 28 27 29 29 30 29 31 28 28 29 26 26 20 23 24 24 24 26 26 25 25 24 24 24 24 23 22 21 20 20 19 20 20 21 21
37 36 37 37 34 30 27 25 25 25 25 29 29 29 30 30 31 29 29 26 25 21 27 22 22 26 24 24 23 23 24 23 22 21 20 20 20 20 20 19 20 21 22 23
37 35 33 31 29 23 22 18 23 22 28 30 29 27 29 29 30 28 25 22 22 26 18 21 26 25 24 23 22 22 21 21 20 19 18 18 18 19 21 21 21 21 22 22
32 30 25 25 24 23 22 22 24 28 30 29 29 27 29 28 27 27 21 24 25 18 16 20 25 24 22 22 21 20 20 21 20 18 17 19 19 19 21 21 21 20 22 22
29 28 22 22 26 28 28 30 29 30 30 29 28 28 28 25 24 26 24 21 18 21 19 22 25 24 22 21 20 20 20 20 20 20 20 15 16 17 17 19 21 21 16 16
30 29 27 29 27 27 29 29 28 29 27 27 28 24 23 23 23 20 18 19 16 17 22 27 24 22 21 20 19 20 19 19 19 20 20 20 11 10 15 14 15 13 14 14
29 28 29 29 28 28 28 29 28 28 26 22 23 18 20 24 21 20 23 16 14 25 26 24 21 20 19 19 20 20 19 19 19 20 20 19 20 14 15 15 19 20 22 16

GFSNW_sfc_dewp_303.txt.gz
Dewpoint
53 52 51 50 46 46 44 38 37 46 46 35 34 33 26 31 29 33 21 24 23 20 19 21 21 21 21 26 27 19 21 25 14 8 17 19 19 21 21 32 23 22 17 8
52 52 51 49 46 46 42 41 42 47 43 33 33 31 30 32 23 23 21 24 25 26 23 22 23 23 25 25 27 25 24 23 21 10 16 21 20 26 24 27 23 19 23 8
52 51 50 48 45 47 44 40 33 39 40 38 32 29 28 27 28 24 24 24 28 26 25 25 21 21 24 27 30 34 30 21 26 23 27 24 21 26 23 26 27 19 16 8
52 51 50 47 45 47 43 41 35 39 34 35 33 28 28 22 21 26 26 25 25 24 22 22 22 22 21 22 35 27 28 26 25 25 25 14 15 20 23 21 22 24 7 12
51 50 50 45 44 47 40 35 37 35 36 36 32 32 30 20 22 24 23 25 25 26 24 24 24 24 24 24 23 25 25 25 22 20 24 21 21 17 21 20 18 14 11 10
51 50 49 45 44 46 40 40 39 36 36 36 32 31 30 25 25 30 28 27 27 25 27 28 28 28 28 27 26 25 23 26 22 17 17 13 17 17 19 21 22 20 17 18
50 50 48 44 43 45 43 41 39 37 33 34 31 31 29 26 27 26 29 30 29 29 29 31 29 29 30 29 26 26 23 22 22 21 14 12 14 18 20 20 22 22 18 19
50 49 46 43 44 48 42 44 41 39 34 32 32 31 30 31 32 30 31 34 32 30 30 30 28 28 26 26 28 25 25 25 23 22 15 10 11 20 20 19 15 22 19 23
49 48 46 43 47 48 47 45 44 42 37 33 32 32 32 31 31 32 33 34 33 33 33 32 25 22 24 22 25 26 23 25 24 21 15 13 13 16 21 18 12 25 24 25
48 47 44 45 47 48 47 45 43 39 36 36 35 33 33 33 33 34 32 31 32 33 32 29 25 22 23 21 24 24 24 24 23 20 17 15 16 21 20 12 22 26 26 26
48 46 44 47 48 49 48 43 44 39 37 35 36 36 34 33 35 34 34 34 34 33 29 30 27 25 26 23 24 24 23 24 24 21 21 18 25 21 17 23 28 28 28 28
47 45 46 48 48 48 47 42 42 43 40 38 38 37 37 36 36 35 33 34 31 35 32 31 31 27 27 24 23 26 25 27 27 25 24 28 28 27 28 28 28 28 29 29
46 46 47 48 49 47 45 42 41 41 39 38 37 36 38 41 40 41 36 35 34 32 35 34 32 26 27 25 23 24 25 27 28 25 26 26 27 28 28 28 28 29 30 28
46 47 48 48 47 46 44 41 41 41 39 35 35 38 37 39 42 40 39 38 39 38 36 36 35 32 29 27 27 25 26 28 27 25 27 26 26 26 27 27 27 27 27 27
46 47 47 47 46 46 43 41 41 41 39 35 35 37 37 38 40 39 40 39 37 36 37 35 33 30 30 27 27 25 27 27 26 25 28 27 26 26 26 25 26 26 25 25
47 47 47 46 45 43 40 36 42 40 41 37 34 35 35 37 37 36 35 36 37 36 36 33 32 32 31 30 24 27 28 30 29 28 28 28 28 27 25 25 24 23 22 22
47 46 46 45 44 44 41 39 41 41 41 37 33 33 35 35 35 35 36 35 35 35 33 32 30 30 31 30 23 27 28 29 29 29 27 25 23 22 23 23 22 23 22 21
46 46 45 44 44 42 39 39 42 41 38 37 32 32 33 35 33 34 33 34 34 32 31 31 29 29 29 27 27 27 27 27 26 27 26 24 23 23 21 22 22 22 22 22
46 45 44 43 39 38 37 41 41 40 37 32 32 31 31 33 32 33 34 33 31 30 31 30 29 26 25 25 27 26 26 25 22 22 22 24 24 22 22 21 22 20 18 16
45 43 39 34 36 40 39 37 35 35 35 34 31 32 31 32 31 31 32 32 28 27 27 29 28 24 27 28 27 28 25 23 24 24 23 24 21 21 20 18 17 17 17 18
41 36 35 36 40 35 34 31 31 30 29 30 30 31 29 32 30 29 30 27 27 22 24 25 25 24 26 28 27 25 25 24 25 24 23 21 20 17 15 16 17 18 19 18
37 35 37 37 34 31 26 25 26 26 26 29 30 30 30 31 33 31 30 26 26 16 26 25 22 27 26 25 25 25 24 21 19 18 17 17 17 18 17 18 18 19 20 23
38 35 33 32 29 23 23 19 23 24 28 30 30 30 30 31 31 30 28 25 24 27 25 22 25 25 24 24 23 21 19 19 17 16 17 18 18 20 19 18 20 21 21 22
33 31 28 27 25 25 25 25 25 28 30 30 30 29 31 30 29 27 22 25 26 23 20 20 26 24 23 22 21 19 17 17 17 17 18 18 18 18 21 23 23 22 22 23
31 28 23 24 27 28 28 30 30 31 31 29 29 29 30 27 26 26 25 23 21 22 22 26 26 24 21 20 20 20 22 23 21 20 22 21 20 20 21 22 22 22 21 22
31 30 28 29 28 29 30 30 29 30 29 29 30 25 24 23 24 22 22 20 19 23 25 28 25 22 22 20 20 20 19 19 20 20 21 21 17 19 23 21 22 20 22 22
29 27 28 29 29 29 29 30 29 29 29 26 25 21 19 25 22 20 24 23 22 26 27 25 21 20 19 19 19 19 19 20 20 20 22 23 22 20 21 24 25 25 25 23

GFSNW_sfc_dewp_306.txt.gz
Dewpoint
52 54 53 51 49 45 46 45 41 50 49 41 45 40 23 29 27 28 20 21 19 16 15 14 15 18 20 25 23 17 23 26 16 8 16 19 21 22 22 37 34 23 19 7
52 53 52 50 48 46 38 40 42 49 47 38 40 31 24 27 27 22 20 21 21 22 19 18 19 21 24 25 25 22 22 26 28 13 17 21 21 25 36 35 25 21 24 12
52 52 51 50 46 46 46 43 34 43 38 35 31 28 24 24 25 24 22 24 25 25 23 24 23 22 24 27 27 33 29 23 37 27 33 30 33 31 33 36 34 19 15 8
52 52 51 49 46 47 45 45 39 40 35 40 31 30 25 21 22 23 24 24 23 22 23 22 23 22 24 26 34 28 28 34 30 27 20 16 15 21 22 28 28 18 6 8
51 52 50 47 44 47 44 41 44 39 33 31 31 30 27 22 21 22 22 22 24 25 27 21 24 23 24 22 28 27 26 28 24 24 24 15 16 15 20 18 15 13 11 10
50 51 50 46 45 47 35 41 42 37 37 33 34 33 25 24 24 26 26 26 27 25 25 29 28 27 27 27 27 27 25 29 24 21 17 15 22 18 19 19 19 19 17 18
49 51 49 46 45 46 44 40 39 44 39 35 31 30 29 24 26 26 27 30 29 29 31 30 30 29 27 27 26 26 25 25 27 27 16 24 16 16 16 20 22 24 21 21
49 51 48 45 46 46 46 44 43 47 41 35 33 32 30 28 28 28 29 32 30 34 29 31 37 34 28 29 25 23 25 25 31 31 17 12 7 15 17 18 13 20 21 19
49 50 48 45 45 46 47 44 47 46 43 38 37 36 35 31 31 33 32 32 36 34 37 41 38 28 32 25 23 23 22 23 24 24 27 25 17 16 20 19 13 22 22 23
50 50 48 46 45 47 49 47 47 45 45 37 36 35 35 31 31 36 32 31 32 32 42 39 30 25 22 22 24 25 22 24 32 26 21 12 15 16 20 13 27 26 25 26
50 49 47 45 45 47 49 45 46 44 44 38 38 35 34 35 37 41 34 36 36 40 38 39 33 28 27 23 23 22 22 27 28 26 31 21 20 19 17 27 29 28 28 29
49 48 47 46 47 48 48 45 44 43 41 39 40 39 40 38 37 39 37 37 32 40 42 37 33 31 29 25 23 26 24 27 28 26 26 29 28 27 29 29 30 29 30 29
48 47 46 47 48 48 48 46 48 44 41 39 39 38 40 41 41 42 42 38 35 34 39 39 37 29 28 28 23 26 27 27 31 27 27 26 28 29 29 29 30 30 30 29
47 46 46 47 48 47 47 47 46 45 45 40 38 39 38 40 42 41 40 39 40 39 39 43 42 36 30 27 27 25 26 27 26 26 27 27 27 28 29 28 29 27 26 25
47 46 47 48 47 47 46 46 46 46 44 40 38 38 37 39 42 39 40 40 39 40 44 43 38 32 31 30 29 26 27 27 26 25 29 28 28 28 27 27 26 26 26 25
46 47 48 47 46 46 46 37 47 43 42 45 38 37 36 38 39 39 39 38 39 41 42 37 33 33 35 34 25 28 28 30 30 29 29 28 28 27 26 26 25 25 23 23
47 48 47 47 47 47 43 41 43 43 44 44 36 34 36 36 36 36 38 38 39 39 39 37 33 32 35 34 24 27 29 29 30 30 29 27 25 25 24 24 22 23 21 21
47 47 47 47 45 44 42 40 43 45 40 40 37 34 35 36 37 37 34 40 40 37 35 34 32 31 34 30 27 28 28 29 28 27 27 27 24 23 22 21 21 21 22 22
47 46 46 45 43 41 41 42 43 43 41 40 38 33 34 34 34 36 37 39 37 35 37 34 32 29 29 25 27 28 28 27 25 24 23 22 22 22 22 22 21 18 11 10
46 45 40 34 39 43 44 42 42 42 41 42 36 34 34 34 33 35 36 37 31 32 30 31 32 23 27 28 28 28 27 25 25 25 24 24 23 22 19 14 12 13 13 14
42 38 36 39 43 43 40 36 35 34 31 34 33 33 30 33 32 32 32 32 29 28 26 28 25 23 28 29 29 28 27 26 25 25 24 23 22 18 14 14 15 15 14 15
42 40 40 40 38 36 32 32 29 29 26 32 32 31 32 33 34 31 30 26 27 20 27 30 23 28 29 29 27 26 26 25 23 22 19 16 13 14 14 15 15 15 16 20
37 37 35 35 32 32 27 26 25 29 31 32 30 33 33 32 33 33 30 31 27 27 30 22 26 28 28 27 25 23 21 20 17 15 15 16 17 17 16 16 17 17 17 18
36 33 31 33 28 26 24 25 27 30 32 32 33 34 35 33 30 29 27 26 27 25 23 21 29 27 27 25 22 19 18 18 17 16 15 16 16 16 20 25 24 23 20 23
31 31 29 27 29 30 31 31 31 32 33 32 33 31 32 31 31 27 26 25 23 22 24 30 30 27 24 22 20 19 21 24 18 17 24 26 24 22 25 26 23 22 26 26
31 30 28 30 30 32 34 33 34 33 33 33 32 28 26 24 25 24 24 20 21 28 31 31 29 25 24 20 20 19 17 17 16 18 21 24 25 27 29 28 28 26 27 27
29 30 31 31 30 33 32 32 33 32 33 33 27 29 21 26 22 20 25 28 29 30 30 27 24 22 20 22 18 17 17 16 18 19 22 27 27 26 27 26 28 28 27 26

GFSNW_sfc_dewp_309.txt.gz
Dewpoint
50 52 53 53 51 49 48 45 40 51 52 37 44 42 25 29 20 20 17 18 17 15 12 13 13 13 17 23 23 16 22 30 20 11 18 19 22 21 23 37 32 24 21 13
49 51 53 53 50 47 44 41 44 49 48 40 42 31 28 22 21 17 19 20 20 22 18 16 16 17 25 23 22 21 23 29 29 15 18 19 21 25 37 38 27 24 24 17
48 50 52 51 50 47 52 46 35 40 42 33 34 32 30 27 26 19 19 22 24 25 22 22 20 21 24 26 25 34 32 27 35 27 36 33 34 32 36 37 31 21 18 14
48 49 51 51 49 49 51 47 38 40 37 44 32 32 27 25 25 23 22 23 21 22 23 22 22 22 25 27 33 27 28 35 31 27 16 17 16 22 26 31 24 22 10 6
47 49 51 50 48 49 50 39 45 38 34 33 32 32 29 25 24 24 21 22 22 23 27 25 27 23 24 22 29 28 28 30 25 23 21 15 13 12 18 20 15 13 14 11
48 49 51 50 48 49 47 49 47 39 36 33 33 34 29 27 26 26 24 24 26 25 24 29 28 26 26 26 28 28 29 32 26 20 17 16 22 19 15 17 17 16 17 17
48 49 50 49 48 49 50 49 42 45 39 30 28 28 29 28 27 28 26 27 26 31 32 31 30 29 28 27 26 28 28 28 30 31 18 27 15 15 14 17 18 21 18 19
47 48 49 48 47 49 50 49 46 46 45 30 29 29 28 26 27 27 29 30 32 36 31 33 37 33 29 29 23 25 26 27 36 33 21 15 11 13 11 15 17 19 20 21
47 48 49 48 47 49 49 48 50 51 45 38 32 29 31 31 31 34 34 33 37 35 35 42 36 29 31 26 23 22 22 27 26 25 28 27 24 15 17 17 14 19 19 22
48 48 49 47 47 49 49 50 50 48 50 40 39 35 35 35 34 38 35 35 35 36 42 39 29 25 23 25 26 29 24 26 33 28 22 16 16 15 19 14 28 23 22 24
48 48 49 47 48 49 49 49 49 48 48 42 41 41 41 40 41 45 38 37 38 43 38 40 37 31 29 24 22 22 23 28 32 30 34 23 18 17 16 29 28 27 27 28
48 49 49 47 47 48 49 47 47 45 47 43 44 43 42 40 37 39 39 38 35 39 44 42 38 34 34 26 25 24 24 26 29 29 27 30 22 29 28 28 29 29 30 30
47 49 48 47 48 48 49 48 49 45 46 40 39 39 42 41 44 45 45 40 36 36 42 40 39 32 30 31 26 28 26 28 32 28 27 26 28 28 27 28 30 31 31 31
46 49 48 47 47 48 48 49 50 50 45 41 38 40 39 41 42 41 43 40 42 41 40 47 45 38 30 31 28 27 27 28 26 26 27 28 28 29 28 29 30 29 28 27
48 49 48 47 47 48 48 47 47 50 44 40 39 39 39 40 42 39 39 41 40 40 46 46 42 33 33 31 29 28 27 27 27 27 29 28 29 29 29 29 27 27 26 26
48 48 47 47 48 47 47 38 49 49 50 44 38 38 38 40 41 39 39 40 42 45 45 40 35 35 38 35 28 29 27 29 31 30 29 29 30 29 27 27 27 26 25 24
47 47 47 48 47 48 43 42 47 48 50 45 37 36 37 39 39 39 40 40 43 42 42 41 35 33 39 37 27 27 28 29 30 31 31 29 28 27 27 26 24 26 23 23
47 47 47 47 46 46 43 44 47 47 47 41 38 35 36 38 38 38 38 43 43 41 37 35 33 32 35 34 28 28 28 30 30 29 28 29 28 26 24 23 22 22 22 19
47 47 47 46 44 41 42 44 46 49 44 42 39 35 36 36 37 36 39 42 41 38 40 36 33 32 30 27 28 27 29 29 28 27 27 26 25 23 23 23 23 18 11 11
47 46 40 34 42 45 45 45 43 44 44 45 39 35 36 35 35 38 39 41 35 36 33 32 35 28 28 27 28 29 29 28 27 27 26 26 25 24 22 17 14 12 11 11
44 38 35 42 46 44 41 34 36 38 35 37 36 35 33 36 34 34 35 35 32 30 28 30 28 25 28 29 29 29 28 27 27 27 27 25 24 20 17 15 13 14 13 15
43 42 43 42 40 37 34 34 36 33 30 35 35 34 34 35 34 33 33 29 29 24 29 31 26 30 29 29 29 29 28 28 26 26 24 22 18 17 15 15 15 15 17 20
42 40 38 36 36 32 32 31 29 34 33 35 34 37 35 35 36 36 33 33 29 29 33 26 29 31 30 29 27 27 26 26 24 20 17 17 15 16 17 16 17 16 17 17
38 35 32 35 29 30 28 30 30 33 35 34 36 38 38 36 33 33 31 29 29 28 26 24 32 31 29 27 27 25 23 21 21 19 17 17 18 18 21 27 23 24 18 20
35 33 31 30 31 33 33 33 32 33 37 38 38 35 36 33 32 30 29 28 27 25 26 33 33 31 28 26 26 23 24 26 21 19 26 29 26 24 26 26 21 23 28 28
31 31 31 33 34 36 36 35 37 38 37 36 35 31 30 28 29 27 29 25 26 29 34 35 32 29 27 24 24 23 21 20 19 21 21 25 29 31 31 31 31 29 30 28
30 31 35 35 35 37 36 37 38 36 37 40 33 32 26 29 26 23 26 30 33 33 33 31 28 26 24 24 24 24 19 19 19 20 21 27 29 29 29 28 27 29 24 31

GFSNW_sfc_dewp_315.txt.gz
Dewpoint
47 48 49 50 51 51 49 46 40 55 52 43 41 36 36 31 16 19 24 25 25 23 22 20 21 23 28 29 24 20 32 30 19 17 23 22 24 26 31 26 19 28 26 17
47 48 49 50 51 50 48 43 47 56 51 33 34 34 32 32 18 18 22 24 26 28 25 22 23 29 30 25 27 28 28 28 23 18 22 24 22 28 33 34 31 26 23 20
48 48 49 49 51 50 49 44 36 45 49 43 36 31 29 31 28 22 22 23 24 26 25 31 27 29 31 31 30 38 33 26 24 20 26 29 19 27 32 29 27 26 26 24
47 48 48 49 50 50 49 45 37 43 35 39 36 34 31 28 28 27 24 25 27 27 25 28 27 29 29 31 36 33 28 24 28 29 29 27 24 21 31 28 25 23 18 14
47 47 48 48 49 50 47 38 42 44 39 34 34 37 29 27 28 26 24 26 27 27 28 28 27 29 29 27 32 29 29 26 28 26 26 22 18 17 25 28 24 23 23 22
45 45 46 48 49 50 46 47 49 42 36 34 34 35 27 31 30 32 27 27 28 28 30 32 32 31 31 32 31 30 30 29 26 22 22 19 16 22 20 20 29 25 22 21
45 45 46 47 48 49 49 50 50 43 35 31 30 34 34 31 33 33 30 27 30 32 34 33 34 33 31 30 32 32 32 30 30 27 23 6 17 19 20 22 23 26 24 23
45 45 45 47 47 49 47 50 49 45 38 32 27 33 35 33 35 35 31 34 35 35 35 34 29 28 26 28 29 28 32 31 28 21 23 19 17 19 15 13 18 24 23 23
44 45 45 47 47 49 48 48 50 49 42 37 33 32 37 38 35 37 37 38 37 41 39 30 24 23 23 23 26 25 27 34 27 25 21 18 26 18 19 17 13 26 25 26
44 45 45 47 47 49 48 48 50 49 44 45 38 40 37 39 39 38 36 37 35 42 32 30 28 27 29 24 23 22 25 27 26 25 23 24 21 18 22 12 21 27 31 29
44 44 44 47 47 49 49 47 49 48 46 46 48 47 42 43 41 36 37 34 36 35 31 29 28 28 27 28 29 25 25 25 23 25 19 19 20 19 17 28 30 30 34 34
44 44 44 47 48 49 49 46 50 50 46 45 49 45 45 45 45 40 38 35 38 39 33 35 33 30 30 29 26 27 25 30 29 28 27 31 32 30 30 31 29 34 35 34
43 43 43 47 48 49 49 47 49 48 44 44 46 45 45 43 44 42 38 40 40 43 43 43 39 31 35 27 29 26 27 31 31 27 31 29 30 29 30 32 34 35 35 33
43 42 43 47 48 49 49 47 49 48 45 38 42 46 43 42 45 46 44 42 43 41 42 38 34 32 35 32 30 31 30 29 29 29 30 30 30 28 32 33 34 33 33 31
42 41 44 47 48 48 49 48 49 50 44 37 39 45 44 42 42 42 46 44 42 42 39 36 35 35 33 32 30 29 30 30 28 27 32 30 30 32 33 31 31 31 29 27
42 42 47 47 47 48 48 37 48 50 49 40 35 45 44 43 42 40 42 42 43 44 40 37 37 37 36 28 26 29 30 33 34 31 33 32 32 31 29 29 29 26 25 24
41 46 47 47 47 48 42 40 46 50 49 40 36 36 43 44 43 42 43 43 42 43 38 36 36 33 38 32 29 29 32 33 33 33 32 31 30 29 29 28 26 27 22 18
43 46 48 47 48 47 44 47 49 50 47 45 35 34 40 44 39 38 42 38 40 39 38 36 34 33 36 31 33 30 31 33 32 31 32 31 30 27 25 24 23 20 14 14
45 47 48 47 45 41 43 49 49 50 45 37 36 34 33 41 40 39 38 42 35 37 32 34 34 32 28 33 29 30 31 32 31 30 28 27 26 24 24 24 22 15 15 17
45 46 40 34 43 47 47 43 38 38 40 42 36 39 35 39 37 37 38 37 33 30 35 35 30 32 31 32 31 32 33 31 29 28 27 27 26 25 25 19 17 17 18 20
42 33 33 42 47 41 38 32 33 34 33 40 41 36 36 39 35 34 37 33 32 27 31 29 29 29 30 32 33 34 31 31 30 29 28 27 27 21 19 18 20 22 23 23
40 41 44 44 38 32 32 32 34 35 33 39 39 36 38 39 38 33 33 30 31 28 32 27 26 30 31 32 32 32 31 30 29 28 24 21 19 20 20 21 21 22 25 25
43 40 37 36 34 30 30 28 32 32 36 38 36 36 37 37 39 32 30 26 27 32 29 26 29 31 31 30 30 30 29 28 25 22 21 21 22 23 23 22 24 24 24 23
36 32 30 32 30 31 31 32 33 37 38 36 36 36 36 36 33 32 28 30 29 23 20 25 27 31 30 30 30 29 26 24 22 21 23 25 24 22 23 23 24 25 25 25
35 36 31 33 33 34 36 37 36 37 37 37 37 37 35 31 30 30 28 25 24 26 24 27 30 31 30 28 25 23 24 25 25 25 25 25 24 25 25 25 25 25 22 20
36 36 32 34 33 32 36 36 37 38 37 37 37 33 30 29 30 28 26 26 23 25 27 31 30 28 26 25 25 26 25 25 25 25 24 23 22 22 23 22 22 18 19 15
33 33 34 34 35 36 37 38 38 38 35 33 33 27 27 32 28 27 29 27 32 34 31 30 27 26 24 24 25 24 23 23 23 25 26 26 26 23 23 22 24 24 26 16